Location: Hradec Kralove
(50.2170°N, 15.8330°E)
Time: 06:27:10
(UTC+02:00)

TIGRISAT - Pass Details

Date: 04 August 2024
Orbit: 591 x 667 km, 97.7° (Epoch: 19 September)

Event Time Altitude Azimuth Distance (km) Brightness Sun altitude
Rises 03:05:41 0° 118° (ESE) 2,954 ? -17.4°
Reaches altitude 10° 03:08:36 10° 97° (E) 2,034 ? -17.2°
Maximum altitude 03:11:20 16° 59° (ENE) 1,639 ? -16.9°
Drops below altitude 10° 03:14:03 10° 20° (NNE) 2,012 ? -16.7°
Sets 03:16:54 0° 0° (N) 2,907 ? -16.5°
